Change the Weather History Date:

Friday, March 1, 2013

  Actual Average Record
Temperature  
Mean Temperature 25 °F 23 °F  
Max Temperature 29 °F 33 °F 70 °F (1992)
Min Temperature 20 °F 13 °F -28 °F (1962)
Degree Days  
Heating Degree Days 40 42  
Month to date heating degree days 40 42  
Since 1 July heating degree days 6349 6473  
Cooling Degree Days 0 0  
Month to date cooling degree days 0 0  
Year to date cooling degree days 0 0  
Moisture  
Dew Point 19 °F    
Average Humidity 84    
Maximum Humidity 92    
Minimum Humidity 75    
Precipitation  
Precipitation T in 0.02 in 0.33 in (1932)
Month to date precipitation T 0.02  
Year to date precipitation 0.59 0.96  
Snow  
Snow 0.10 in 0.30 in 3.50 in (1932)
Month to date snowfall 0.1 0.3  
Since 1 July snowfall 28.7 37.8  
Snow Depth T in    
Sea Level Pressure  
Sea Level Pressure 30.37 in    
Wind  
Wind Speed 6 mph (SSE)    
Max Wind Speed 13 mph    
Max Gust Speed 15 mph    
Visibility 10 miles    
Events Snow    
T = Trace of Precipitation, MM = Missing Value Source: NWS Daily Summary

Daily Weather History Graph

Daily Weather History Graph

Search for Another Location

Airport or City:

Trip Planner

Search our weather history database for the weather conditions in past years. The results will help you decide how hot, cold, wet, or windy it might be!

Date:

Astronomy

Mar. 01, 2013 Rise Set
Actual Time 7:22 AM CST 6:29 PM CST
Civil Twilight 6:51 AM CST 6:59 PM CST
Nautical Twilight 6:16 AM CST 7:34 PM CST
Astronomical Twilight 5:41 AM CST 8:10 PM CST
Moon 11:25 PM CST (3/1) 8:51 AM CST (3/1)
Length of Visible Light 12h 07m
Length of Day
11h 07m
Waning Gibbous, 83% of the Moon is Illuminated
Mar 1
Waning Gibbous
Mar 4
Last Quarter
Mar 11
New
Mar 19
First Quarter
Mar 27
Full

Hourly Weather History & Observations

Time (CST) Temp. Windchill Dew Point Humidity Pressure Visibility Wind Dir Wind Speed Gust Speed Precip Events Conditions
12:14 AM 21.9 °F 11.7 °F 19.0 °F 89% 30.29 in 10.0 mi East 9.2 mph - N/A   Overcast
12:52 AM 21.9 °F 12.5 °F 19.0 °F 89% 30.38 in 10.0 mi East 8.1 mph - N/A   Overcast
1:52 AM 21.9 °F 11.7 °F 18.0 °F 85% 30.37 in 6.0 mi East 9.2 mph - 0.00 in Snow Light Snow
2:52 AM 21.0 °F 12.4 °F 18.0 °F 88% 30.38 in 9.0 mi East 6.9 mph - 0.00 in   Overcast
3:52 AM 21.0 °F 12.4 °F 18.0 °F 88% 30.38 in 10.0 mi East 6.9 mph - 0.00 in   Overcast
4:52 AM 19.4 °F 10.4 °F 17.6 °F 93% 30.30 in 10.0 mi ESE 6.9 mph - N/A   Overcast
5:52 AM 19.9 °F 13.4 °F 17.1 °F 89% 30.40 in 10.0 mi SSE 4.6 mph - N/A   Overcast
6:52 AM 19.9 °F 14.9 °F 17.1 °F 89% 30.42 in 10.0 mi ESE 3.5 mph - N/A   Overcast
7:33 AM 19.9 °F 13.4 °F 16.0 °F 85% 30.34 in 10.0 mi ESE 4.6 mph - N/A   Overcast
7:52 AM 19.9 °F 14.9 °F 16.0 °F 85% 30.43 in 10.0 mi ESE 3.5 mph - N/A   Overcast
8:52 AM 21.0 °F 14.6 °F 16.0 °F 81% 30.44 in 10.0 mi SE 4.6 mph - N/A   Overcast
9:52 AM 21.0 °F 14.6 °F 16.0 °F 81% 30.45 in 10.0 mi East 4.6 mph - N/A   Overcast
10:52 AM 21.9 °F 17.2 °F 17.1 °F 82% 30.45 in 10.0 mi Variable 3.5 mph - N/A   Overcast
11:52 AM 23.0 °F 18.4 °F 18.0 °F 81% 30.45 in 10.0 mi ESE 3.5 mph - N/A   Overcast
12:52 PM 27.0 °F 19.5 °F 19.0 °F 72% 30.43 in 10.0 mi South 6.9 mph - N/A   Overcast
1:08 PM 26.1 °F 18.4 °F 18.0 °F 71% 30.34 in 10.0 mi SSW 6.9 mph - N/A   Mostly Cloudy
1:52 PM 27.0 °F 19.5 °F 19.0 °F 72% 30.41 in 10.0 mi SSW 6.9 mph - N/A   Mostly Cloudy
2:52 PM 28.0 °F 21.7 °F 21.0 °F 75% 30.40 in 10.0 mi SSE 5.8 mph - N/A   Mostly Cloudy
3:11 PM 28.0 °F 22.8 °F 21.0 °F 75% 30.31 in 10.0 mi SSE 4.6 mph - N/A   Scattered Clouds
3:52 PM 28.0 °F 19.3 °F 21.0 °F 75% 30.40 in 10.0 mi SW 9.2 mph - N/A   Scattered Clouds
3:58 PM 28.0 °F 20.0 °F 21.0 °F 75% 30.31 in 10.0 mi SSW 8.1 mph - N/A   Mostly Cloudy
4:06 PM 27.0 °F 18.7 °F 21.0 °F 78% 30.30 in 10.0 mi SSW 8.1 mph - N/A   Scattered Clouds
4:52 PM 27.0 °F 18.7 °F 21.9 °F 81% 30.38 in 10.0 mi South 8.1 mph - N/A   Partly Cloudy
5:52 PM 26.6 °F 20.0 °F 21.2 °F 80% 30.31 in 10.0 mi SSW 5.8 mph - N/A   Partly Cloudy
6:40 PM 27.0 °F 20.5 °F 21.9 °F 81% 30.31 in 10.0 mi South 5.8 mph - N/A   Mostly Cloudy
6:49 PM 26.6 °F 21.2 °F 21.2 °F 80% 30.31 in 10.0 mi South 4.6 mph - N/A   Scattered Clouds
6:52 PM 27.0 °F 21.6 °F 21.9 °F 81% 30.39 in 10.0 mi South 4.6 mph - N/A   Scattered Clouds
7:52 PM 26.1 °F 18.4 °F 23.0 °F 88% 30.36 in 10.0 mi ESE 6.9 mph - N/A   Clear
8:52 PM 24.1 °F 18.2 °F 21.9 °F 91% 30.34 in 10.0 mi ESE 4.6 mph - N/A   Clear
9:52 PM 25.0 °F 14.8 °F 19.9 °F 81% 30.32 in 10.0 mi SSE 10.4 mph - N/A   Clear
10:52 PM 24.1 °F 16.0 °F 21.0 °F 88% 30.33 in 10.0 mi SE 6.9 mph - N/A   Mostly Cloudy
11:52 PM 26.1 °F 16.2 °F 21.9 °F 84% 30.30 in 10.0 mi SSE 10.4 mph - N/A   Overcast